Wind_Speed
9 10 11 12 13 14 15 14 15 15 15 15 15 16 16 18 19 19 19 20 19 19 19 19 20 20 20 20 20 21 21 21 21 21 22 21 21 21 21 20 20 20 19 20
7 8 9 10 11 12 11 11 13 14 15 14 14 16 16 18 19 19 19 19 19 19 18 18 19 19 19 19 19 20 20 20 20 19 19 18 18 18 17 17 17 17 16 17
5 7 8 9 9 9 9 11 12 13 12 13 14 14 16 17 18 18 19 19 20 19 17 18 18 18 18 18 18 18 18 18 18 17 17 16 15 15 15 14 14 14 14 14
5 6 7 7 8 8 9 9 10 12 12 13 13 14 16 16 17 18 19 19 19 18 18 18 17 16 16 17 17 17 17 16 16 15 14 14 14 14 13 12 12 11 11 10
6 7 7 7 7 8 8 9 10 11 11 11 13 14 16 17 17 17 17 17 17 17 17 16 15 15 15 15 16 16 15 14 14 12 12 12 12 11 11 10 10 9 8 7
6 7 7 7 8 9 9 9 10 11 11 11 13 14 15 15 16 17 17 16 16 16 15 14 14 14 14 14 14 13 13 12 11 10 10 10 9 9 9 8 7 6 5 5
6 6 5 6 7 8 9 9 10 10 11 12 13 14 14 16 17 17 16 16 15 14 13 13 13 13 12 12 12 11 11 9 9 9 9 8 7 6 7 6 6 5 5 4
6 6 5 6 7 8 9 9 9 10 11 12 13 14 15 16 16 16 15 14 13 12 11 11 10 10 10 9 9 9 8 8 7 7 7 6 6 6 6 7 6 7 6 6
6 6 6 7 7 8 9 9 10 10 11 12 13 14 14 15 15 14 13 12 11 10 10 9 8 8 8 8 8 8 7 7 6 6 6 6 6 6 7 7 7 7 8 8
6 6 6 7 7 8 9 10 11 11 12 12 13 13 13 13 13 12 12 11 9 8 8 7 6 6 6 6 7 8 7 7 6 7 7 8 8 8 8 8 8 9 10 10
6 6 8 8 8 8 8 10 11 12 12 12 12 12 12 11 11 11 10 8 7 7 7 7 6 6 6 6 7 7 7 7 8 8 8 8 9 9 10 10 10 10 11 12
6 6 7 7 8 8 9 9 11 11 11 11 11 10 10 10 9 9 8 7 7 7 7 7 6 6 7 7 7 7 8 8 8 9 10 10 10 11 11 12 12 13 13 13
6 6 7 7 7 8 9 9 10 10 10 10 9 9 9 9 8 8 8 8 7 7 7 7 7 7 7 8 8 9 9 9 10 10 11 12 12 13 14 14 14 14 15 15
6 6 6 6 7 7 8 9 9 10 9 9 9 9 8 8 8 7 7 7 8 8 8 8 8 8 8 9 10 10 10 11 11 12 13 14 15 15 16 16 16 16 16 17
6 5 5 6 6 6 7 8 9 9 9 9 9 8 8 8 7 7 7 7 8 9 9 10 10 10 11 11 12 12 13 14 14 14 15 15 16 16 16 16 16 17 17 17
5 4 5 5 5 6 6 7 8 9 9 9 8 8 8 7 7 7 7 8 8 9 10 11 11 12 12 13 14 14 14 15 15 15 15 15 15 16 16 16 17 17 18 18
4 4 5 5 5 5 6 6 7 8 8 7 7 7 7 6 6 6 7 8 8 9 10 11 12 12 12 13 13 14 14 14 15 15 15 15 15 15 16 17 17 17 18 18
5 5 4 4 4 4 5 6 6 7 7 7 7 6 5 5 5 5 6 7 7 8 9 10 10 11 12 12 12 12 13 14 15 15 15 15 15 15 15 16 16 16 16 16
5 5 5 4 4 4 4 5 5 6 5 6 6 5 5 5 5 5 5 6 6 7 7 8 8 9 10 11 11 11 12 13 14 14 14 15 15 14 15 15 15 15 15 14
5 5 5 5 5 4 4 4 5 5 4 4 4 4 4 3 4 4 4 5 6 6 7 7 8 8 9 10 10 11 11 12 12 13 13 13 13 14 14 14 14 14 14 13
6 5 5 5 5 5 4 4 4 4 4 3 3 2 2 2 2 3 4 5 5 6 7 7 7 7 8 8 9 10 10 10 10 10 11 11 12 12 13 13 12 12 12 12
7 7 6 6 6 6 5 5 4 4 3 3 2 1 1 1 1 2 3 4 4 5 5 6 6 6 7 7 8 8 9 8 8 9 10 10 10 10 10 10 10 10 10 10
8 8 7 7 7 7 6 6 5 5 4 3 3 2 1 1 1 2 3 3 4 4 4 4 5 5 6 6 6 7 7 7 7 7 8 8 9 8 8 8 8 8 8 8
10 9 9 9 9 8 8 7 7 6 6 5 4 3 3 2 3 3 3 3 4 4 4 4 4 5 5 5 6 6 6 6 6 6 6 6 7 6 6 6 6 5 5 4
11 11 10 10 10 10 9 9 8 8 7 7 6 5 5 5 5 5 5 5 5 5 5 5 5 5 5 6 6 6 6 6 6 6 5 5 5 5 4 4 3 3 2 1
13 12 12 12 12 12 11 11 10 10 10 9 9 8 7 7 7 8 8 8 7 7 7 7 7 7 7 7 7 7 7 7 7 6 6 6 5 5 4 4 4 3 2 2
14 14 14 14 13 13 13 13 13 13 12 12 11 11 10 10 9 10 10 10 10 10 10 10 10 10 10 10 10 10 10 9 9 8 8 8 7 7 6 6 6 6 6 6
Wind_Direction
256 257 257 256 259 264 268 274 280 291 299 309 310 307 306 308 310 308 308 308 307 306 305 303 302 302 303 304 304 303 302 300 298 298 296 294 294 295 294 292 289 286 280 276
254 257 260 262 266 268 277 282 286 292 299 307 308 309 310 310 313 312 311 310 310 307 306 306 305 304 303 304 305 305 304 302 302 301 300 298 297 299 299 297 295 290 284 281
254 260 265 262 271 280 282 286 291 298 300 305 308 309 312 313 316 314 311 310 310 309 306 308 306 305 305 307 308 308 308 308 306 304 304 303 302 303 304 303 301 297 292 287
268 276 278 281 277 280 289 295 296 304 307 309 308 311 312 313 316 316 315 311 311 310 308 306 306 306 307 310 310 310 310 312 311 308 307 306 308 309 310 309 310 308 305 300
284 295 296 301 298 298 302 302 305 307 309 310 312 314 314 315 316 317 316 315 313 312 311 309 307 306 307 310 312 314 314 314 316 314 312 311 312 312 314 317 321 320 319 316
294 294 296 305 304 306 308 308 311 312 313 313 316 316 316 319 319 318 318 316 315 315 313 313 311 310 311 314 316 320 320 318 319 320 321 322 326 327 329 330 335 340 343 345
308 310 307 311 312 314 316 318 313 314 313 313 315 319 321 322 322 321 319 317 317 318 318 317 316 316 318 321 322 322 325 324 325 328 333 337 345 352 355 359 1 8 10 13
313 318 324 323 320 320 319 319 319 321 320 319 319 320 322 323 323 324 323 323 323 326 327 326 323 325 328 330 334 337 336 335 342 349 356 1 10 20 25 25 25 30 35 40
323 320 324 325 324 327 326 326 327 327 326 324 324 323 324 325 327 329 331 331 332 333 334 335 334 336 340 343 349 351 352 356 1 5 11 22 33 41 42 41 42 50 59 60
324 325 330 331 330 327 326 328 330 329 328 328 327 327 329 332 335 336 337 339 342 344 345 346 350 357 359 1 3 4 13 24 29 32 40 48 56 60 58 57 62 67 69 72
324 329 335 333 332 329 326 327 328 328 329 330 329 331 335 339 343 346 347 352 359 360 360 1 5 10 12 15 21 29 38 44 48 49 54 62 68 71 72 71 75 77 78 78
321 327 328 330 329 333 332 331 332 334 336 338 337 339 342 347 352 357 3 9 11 14 18 22 28 30 35 39 45 52 59 59 57 59 67 72 76 77 78 80 83 83 82 82
315 323 330 332 333 336 338 339 339 341 344 346 348 350 352 358 4 10 18 23 22 25 32 37 42 46 51 53 58 65 66 66 65 70 77 78 81 83 84 86 87 86 84 86
317 325 329 331 331 338 346 349 349 351 352 352 355 359 2 8 13 19 27 32 36 41 44 51 57 60 64 67 71 73 72 73 76 81 84 86 87 87 87 88 89 89 89 89
318 324 325 329 336 344 352 356 357 358 358 0 5 11 17 23 29 36 44 47 49 54 58 64 69 73 75 77 77 76 78 81 83 87 88 90 89 89 90 91 91 92 92 90
313 319 323 327 332 340 349 355 359 1 3 8 15 21 27 36 43 50 56 57 59 64 68 73 77 81 82 80 80 81 83 83 85 87 88 89 90 90 90 91 92 93 92 92
299 313 323 331 333 339 345 350 355 2 6 10 17 24 31 40 49 58 61 62 67 72 76 79 82 85 84 84 84 84 85 87 87 87 88 89 90 92 94 94 94 94 93 93
292 303 313 324 331 336 342 346 350 357 4 10 15 23 33 44 55 64 67 68 74 80 82 85 86 89 89 89 89 90 91 90 89 89 90 90 92 94 96 96 96 95 95 94
287 290 297 308 314 321 331 340 346 352 1 9 17 27 37 51 62 69 75 75 78 85 88 90 93 95 96 96 96 97 98 97 94 93 93 94 96 98 98 97 97 96 94 93
281 283 289 295 298 308 320 329 335 344 353 2 15 28 39 52 65 77 87 89 89 93 97 99 102 104 103 103 104 105 105 103 100 98 96 96 98 100 100 99 98 97 95 93
280 282 285 290 287 291 302 314 322 329 336 345 360 15 29 47 75 96 104 104 99 101 104 106 109 111 112 112 113 113 112 110 107 105 104 103 103 102 102 101 99 98 96 92
273 272 274 282 282 281 286 293 302 308 313 313 321 349 12 42 102 130 133 127 120 114 113 116 121 123 125 125 124 123 122 120 116 114 112 112 111 110 108 106 104 101 96 92
270 269 269 271 274 275 276 279 282 287 287 283 279 276 277 259 212 187 170 160 157 150 140 136 139 141 140 139 140 139 136 132 128 125 123 121 120 119 116 113 110 106 102 96
270 269 268 266 267 268 269 270 273 276 272 262 259 257 252 246 229 214 205 200 194 187 181 174 171 169 165 162 161 158 154 150 147 144 141 139 135 131 127 122 119 114 108 97
268 269 268 264 263 264 265 266 266 266 264 262 259 256 251 243 236 230 224 220 215 211 208 203 197 193 190 187 184 180 178 176 174 172 169 168 164 160 156 154 153 148 136 97
267 266 267 265 261 260 261 264 264 262 260 259 257 253 248 245 240 236 234 233 232 229 227 224 220 215 211 211 208 204 201 200 201 203 203 202 200 201 204 208 213 220 236 265
264 263 263 263 262 260 260 261 261 259 258 257 254 251 247 243 241 239 238 237 236 235 234 233 231 228 224 224 223 221 219 218 218 220 223 225 226 229 234 239 245 252 260 270
Height
5808 5808 5807 5807 5808 5808 5807 5808 5807 5807 5806 5805 5803 5801 5799 5797 5795 5793 5790 5787 5784 5781 5778 5775 5773 5770 5767 5764 5761 5758 5755 5752 5749 5747 5744 5742 5740 5737 5735 5733 5731 5730 5729 5728
5806 5805 5805 5805 5804 5805 5805 5804 5804 5803 5802 5800 5799 5796 5794 5793 5790 5788 5785 5783 5780 5777 5774 5771 5768 5765 5762 5759 5756 5753 5750 5747 5744 5742 5739 5737 5735 5732 5730 5728 5726 5724 5723 5722
5804 5803 5803 5803 5802 5802 5801 5800 5800 5799 5798 5796 5794 5792 5790 5788 5786 5783 5781 5778 5775 5771 5769 5766 5763 5760 5758 5755 5752 5749 5746 5743 5740 5737 5735 5733 5731 5728 5726 5724 5722 5720 5719 5718
5802 5802 5801 5802 5799 5799 5798 5797 5796 5795 5794 5792 5791 5788 5786 5784 5781 5779 5776 5773 5770 5767 5764 5761 5758 5756 5753 5751 5748 5745 5742 5739 5736 5734 5732 5729 5727 5725 5723 5721 5719 5717 5716 5715
5800 5799 5799 5798 5797 5796 5795 5794 5793 5792 5791 5789 5787 5784 5782 5779 5777 5774 5771 5768 5765 5762 5759 5757 5754 5752 5749 5747 5744 5741 5738 5736 5733 5731 5729 5727 5725 5723 5721 5719 5717 5715 5714 5712
5798 5797 5797 5798 5796 5794 5793 5792 5791 5789 5788 5786 5783 5781 5779 5776 5773 5769 5766 5764 5761 5758 5755 5753 5750 5748 5746 5743 5741 5738 5736 5733 5731 5729 5727 5725 5723 5721 5719 5718 5716 5714 5713 5712
5796 5795 5795 5795 5793 5793 5792 5791 5788 5786 5784 5783 5780 5778 5776 5772 5769 5765 5762 5760 5757 5755 5752 5750 5747 5745 5742 5740 5738 5736 5734 5732 5729 5727 5725 5723 5722 5720 5719 5717 5716 5714 5713 5712
5795 5794 5796 5793 5792 5791 5790 5787 5785 5783 5781 5779 5777 5775 5772 5769 5766 5762 5759 5756 5754 5751 5749 5747 5745 5742 5740 5738 5736 5734 5732 5730 5728 5726 5725 5723 5722 5720 5719 5718 5716 5715 5714 5713
5794 5795 5792 5791 5790 5788 5787 5785 5783 5781 5779 5777 5774 5772 5769 5766 5763 5760 5757 5754 5751 5749 5747 5745 5743 5741 5739 5738 5735 5733 5731 5730 5728 5726 5725 5723 5722 5721 5720 5719 5718 5716 5715 5715
5792 5791 5790 5789 5788 5786 5785 5783 5781 5779 5777 5774 5772 5769 5766 5763 5760 5757 5754 5752 5750 5748 5746 5744 5742 5740 5739 5737 5735 5733 5731 5730 5728 5727 5726 5724 5723 5722 5721 5720 5719 5719 5718 5717
5791 5789 5788 5787 5786 5785 5783 5781 5779 5777 5775 5772 5769 5767 5764 5761 5759 5756 5753 5751 5749 5747 5745 5743 5742 5740 5739 5737 5735 5734 5732 5731 5730 5728 5727 5726 5725 5724 5723 5722 5722 5721 5721 5720
5789 5789 5787 5786 5784 5783 5782 5780 5777 5775 5772 5770 5768 5765 5763 5760 5757 5755 5753 5751 5749 5747 5746 5744 5742 5741 5739 5738 5736 5735 5734 5733 5731 5730 5729 5728 5727 5726 5726 5725 5725 5724 5724 5723
5788 5787 5786 5784 5783 5782 5780 5778 5776 5774 5771 5769 5767 5764 5762 5759 5757 5755 5753 5751 5750 5748 5746 5745 5743 5742 5740 5739 5738 5737 5736 5735 5734 5733 5732 5731 5730 5730 5729 5729 5728 5728 5727 5727
5785 5785 5784 5783 5782 5780 5779 5777 5775 5773 5770 5768 5766 5764 5761 5759 5757 5755 5754 5752 5751 5749 5747 5746 5744 5743 5742 5741 5740 5739 5738 5737 5736 5736 5735 5735 5734 5734 5733 5733 5732 5732 5732 5732
5783 5783 5783 5782 5781 5779 5778 5776 5774 5772 5770 5768 5766 5764 5762 5760 5758 5756 5755 5754 5752 5751 5749 5748 5747 5746 5745 5744 5743 5742 5742 5741 5740 5740 5739 5739 5738 5738 5737 5737 5737 5737 5736 5736
5782 5782 5782 5781 5780 5779 5778 5776 5774 5772 5770 5768 5766 5764 5762 5760 5759 5758 5757 5755 5754 5753 5752 5751 5750 5749 5748 5748 5747 5746 5746 5745 5744 5744 5743 5743 5743 5742 5742 5742 5742 5741 5741 5741
5781 5781 5781 5780 5779 5778 5777 5776 5774 5772 5770 5768 5766 5765 5763 5762 5760 5759 5758 5757 5756 5755 5754 5754 5753 5752 5752 5751 5751 5750 5750 5749 5749 5748 5748 5747 5747 5747 5747 5747 5746 5746 5746 5746
5780 5780 5779 5779 5778 5777 5776 5775 5774 5772 5770 5769 5767 5765 5764 5763 5762 5761 5760 5759 5758 5758 5757 5757 5756 5756 5755 5755 5755 5754 5754 5754 5753 5752 5752 5752 5752 5752 5751 5751 5751 5751 5751 5751
5778 5778 5778 5777 5777 5776 5775 5774 5773 5772 5770 5769 5767 5766 5765 5764 5763 5762 5761 5761 5760 5760 5759 5759 5759 5759 5758 5758 5758 5758 5758 5757 5757 5757 5756 5756 5756 5756 5756 5756 5756 5755 5755 5755
5776 5776 5776 5776 5775 5775 5774 5773 5773 5771 5770 5769 5768 5766 5765 5765 5764 5763 5762 5762 5762 5761 5761 5761 5761 5761 5761 5761 5761 5761 5761 5761 5761 5760 5760 5760 5760 5760 5760 5759 5759 5759 5759 5759
5774 5774 5774 5774 5773 5773 5773 5772 5771 5771 5770 5769 5768 5767 5766 5765 5765 5764 5764 5764 5764 5763 5763 5763 5763 5763 5764 5764 5764 5764 5764 5764 5764 5764 5764 5764 5764 5763 5763 5763 5763 5763 5763 5762
5772 5772 5772 5771 5771 5771 5771 5771 5770 5770 5769 5768 5768 5767 5766 5766 5765 5765 5765 5765 5765 5765 5765 5765 5765 5765 5766 5766 5766 5766 5766 5766 5767 5767 5766 5766 5766 5766 5766 5766 5766 5766 5765 5765
5768 5769 5769 5769 5769 5769 5769 5769 5769 5768 5768 5767 5767 5767 5766 5766 5765 5765 5765 5766 5766 5766 5766 5766 5766 5767 5767 5767 5768 5768 5768 5768 5768 5769 5769 5769 5769 5769 5768 5768 5768 5767 5767 5767
5765 5765 5765 5766 5766 5766 5766 5766 5766 5766 5766 5766 5766 5765 5765 5765 5765 5765 5765 5765 5766 5766 5766 5767 5767 5768 5768 5768 5768 5769 5769 5769 5769 5770 5770 5770 5770 5770 5770 5769 5769 5769 5768 5768
5761 5761 5762 5762 5762 5763 5763 5763 5763 5764 5764 5764 5764 5764 5764 5764 5764 5764 5764 5765 5765 5765 5766 5766 5767 5767 5768 5768 5769 5769 5769 5770 5770 5770 5770 5770 5770 5770 5770 5770 5769 5769 5768 5767
5757 5757 5757 5758 5759 5759 5759 5760 5760 5761 5761 5761 5762 5762 5762 5762 5762 5762 5763 5763 5764 5764 5765 5765 5766 5766 5767 5767 5768 5768 5768 5769 5769 5770 5770 5770 5770 5769 5769 5769 5768 5768 5767 5767
5752 5752 5753 5753 5754 5755 5755 5756 5756 5757 5757 5758 5758 5758 5759 5759 5759 5759 5760 5761 5761 5762 5762 5763 5763 5764 5765 5765 5766 5766 5767 5767 5767 5768 5768 5768 5768 5768 5768 5767 5767 5766 5765 5765